Home > Weather > North Korea > Chongjin > Past weeks

Flag for North Korea Weather past 2 weeks in Chongjin, North Korea

39 °F

Sprinkles. Broken clouds.

Feels Like: 32 °F
Forecast: 20 / 33 °F
Wind: 13 mph from Southeast

Location: Vladivostok Airport

Current Time: Dec 2, 2015 at 9:29:17 AM

Latest Report: Dec 2, 2015 at 9:00 AM

Visibility: 6 mi

Pressure: 29.98 "Hg

Humidity: 93%

Dew point: 37 °F

Location of ChongjinLocation

Historic Weather in Chongjin — Graph


Chongjin temperature yesterday

Maximum temperature yesterday: 28 °F (at 1:30 PM)
Minimum temperature yesterday: -9 °F (at 7:00 AM)
Average temperature yesterday: 12 °F

Past Weeks' High & Low Weather Summary

High37 °F (Nov 17, 2:00 PM)100% (Dec 2, 2:00 AM)30.74 "Hg (Dec 2, 2:00 AM)
Low-9 °F (Dec 1, 7:00 AM)33% (Nov 22, 2:00 PM)29.89 "Hg (Nov 26, 3:30 PM)
Average16 °F62%30.36 "Hg
* Reported Nov 17 7:30 AM — Dec 2 8:00 AM, Chongjin, Weather by CustomWeather, © 2015

Note: Actual official high and low records may vary slightly from our data, if they occured in-between our weather recording intervals... More about our weather records


Chongjin weather history for previous 24 hours

Time TempWeatherWind HumidityBarometerVisibility
8:00 AM
Wed, Dec 2
37 °FSprinkles. Partly sunny.10 mph93%30.01 "HgN/A
7:30 AM36 °FSprinkles. Passing clouds.6 mph100%30.01 "Hg4 mi
6:30 AM36 °FSprinkles. Passing clouds.6 mph93%30.04 "HgN/A
6:00 AM34 °FOvercast.6 mph93%30.04 "HgN/A
5:30 AM34 °FOvercast.6 mph93%30.07 "HgN/A
5:00 AM32 °FOvercast.6 mph93%30.07 "Hg5 mi
4:30 AM30 °FSnow flurries. Ice fog.6 mph93%30.09 "Hg3 mi
4:00 AM28 °FSnow flurries. Ice fog.6 mph93%30.09 "Hg3 mi
3:30 AM28 °FSnow flurries. Ice fog.3 mph93%30.12 "Hg3 mi
3:00 AM27 °FSnow flurries. Ice fog.6 mph93%30.15 "Hg2 mi
2:30 AM27 °FSnow flurries. Ice fog.1 mph93%30.15 "Hg1 mi
2:00 AM25 °FSnow flurries. Ice fog.6 mph100%30.18 "Hg1 mi
1:30 AM25 °FCold.3 mph93%30.18 "Hg1 mi
1:00 AM25 °FSnow flurries. Ice fog.3 mph93%30.18 "Hg2 mi
12:30 AM25 °FSnow flurries. Ice fog.3 mph93%30.18 "Hg1 mi
12:00 AM25 °FSnow flurries. Ice fog.3 mph93%30.21 "Hg2 mi
11:30 PM
Tue, Dec 1
23 °FSnow flurries. Ice fog.3 mph93%30.24 "Hg1 mi
11:00 PM23 °FSnow flurries. Ice fog.3 mph93%30.24 "Hg2 mi
10:30 PM23 °FSnow flurries. Passing clouds.6 mph93%30.24 "Hg2 mi
10:00 PM23 °FSleet. Overcast.3 mph86%30.27 "Hg1 mi
9:30 PM25 °FSnow flurries. Passing clouds.3 mph69%30.27 "Hg1 mi
9:00 PM25 °FOvercast.6 mph63%30.27 "Hg4 mi
8:30 PM25 °FOvercast.6 mph59%30.27 "Hg6 mi
8:00 PM23 °FOvercast.6 mph68%30.30 "Hg5 mi
7:30 PM23 °FOvercast.3 mph63%30.30 "Hg6 mi
7:00 PM21 °FPassing clouds.3 mph74%30.30 "Hg6 mi
6:30 PM21 °FPassing clouds.1 mph63%30.30 "Hg5 mi
6:00 PM21 °FClear.No wind63%30.33 "Hg6 mi
5:30 PM23 °FClear.3 mph58%30.33 "Hg5 mi
5:00 PM23 °FClear.1 mph58%30.30 "HgN/A
4:30 PM25 °FClear.3 mph54%30.30 "HgN/A
4:00 PM25 °FClear.No wind54%30.30 "HgN/A
3:30 PM25 °FClear.3 mph54%30.33 "HgN/A
3:00 PM27 °FClear.3 mph50%30.30 "HgN/A
2:30 PM25 °FClear.1 mph54%30.33 "HgN/A
2:00 PM28 °FClear.No wind40%30.33 "HgN/A
1:30 PM28 °FClear.No wind43%30.33 "HgN/A
1:00 PM27 °FClear.No wind46%30.33 "HgN/A
12:30 PM27 °FClear.No wind46%30.33 "HgN/A
12:00 PM25 °FClear.No wind50%30.36 "Hg6 mi
11:00 AM19 °FClear.No wind68%30.39 "Hg4 mi
10:30 AM16 °FClear.No wind73%30.39 "HgN/A
9:00 AM5 °FClear.No wind78%30.42 "HgN/A
Weather by CustomWeather, © 2015

See weather overviewHow to use our weather pages